Theta_e
350 351 351 351 351 350 349 350 351 353 353 353 353 352 351 352 353 353 353 352 351 350 349 349 350 350 350 351 352 352 352 351 350 350 350 350 348 348 348 348 349 349 350 349 349 349 349 350 351 351 351 352 352 352 352 350 350 351 351 351 353 354 353 350 346 345 347 346 346 347 347 347 346 345 345 346 346 346 347 345 345 348 349 347 344
349 350 350 351 351 351 350 350 351 353 354 354 353 353 352 352 353 353 353 352 350 348 347 346 348 349 350 351 352 353 352 351 351 350 349 349 347 348 349 348 348 348 349 350 349 349 349 350 350 350 351 352 351 351 350 350 350 351 352 354 354 354 355 350 345 345 347 347 347 347 347 346 346 346 346 347 346 347 347 347 345 347 349 348 344
348 348 350 350 350 351 350 351 352 352 354 354 354 354 353 353 353 352 352 352 349 346 344 344 345 345 348 350 352 353 351 350 351 350 349 349 347 348 349 348 347 348 348 349 350 350 349 350 350 350 350 351 351 352 351 349 351 351 352 355 355 355 354 350 346 346 348 348 347 347 347 346 346 348 348 346 345 346 346 346 347 347 348 346 342
348 347 348 350 350 350 350 351 352 352 354 354 354 355 354 354 353 351 349 349 347 345 345 344 343 343 345 348 350 352 350 349 349 349 349 349 348 348 349 350 349 349 348 349 350 350 350 350 351 351 351 351 352 353 352 350 352 352 352 354 356 355 353 353 351 347 346 347 348 347 347 346 345 347 348 346 344 344 345 345 345 346 347 344 341
348 347 347 349 350 350 350 351 352 353 353 354 355 355 355 354 353 351 348 348 346 345 344 344 343 343 346 349 350 351 351 350 351 351 351 349 350 349 348 350 351 350 349 349 349 349 350 351 351 351 351 351 352 353 353 352 352 353 352 353 356 355 354 354 353 351 347 345 347 348 348 347 346 346 346 347 345 343 343 344 344 344 346 343 339
347 347 347 349 350 350 350 350 351 352 353 354 354 354 355 354 353 352 350 348 347 346 345 344 344 344 347 351 352 352 353 353 352 353 352 351 352 351 349 350 350 350 350 350 350 349 350 351 350 351 351 351 352 353 353 352 352 353 352 354 356 356 355 355 354 354 350 346 346 347 348 348 349 349 348 349 348 344 343 343 343 344 344 342 340
347 347 347 348 350 349 350 350 350 351 352 353 354 354 355 355 353 353 352 350 349 348 346 345 345 345 347 351 353 353 354 354 350 350 349 348 351 350 349 350 350 349 350 350 350 350 351 351 351 350 351 351 352 353 354 354 354 354 352 353 355 355 355 356 354 354 353 351 350 350 350 349 349 349 348 348 349 348 346 343 343 345 344 342 342
348 347 346 347 349 349 350 350 350 351 352 353 353 354 355 355 353 352 352 351 350 348 346 345 345 346 348 351 352 352 353 353 348 346 347 347 349 349 349 350 349 349 349 349 350 350 350 352 352 351 351 352 352 353 355 356 355 354 352 351 351 352 355 357 355 354 353 353 353 352 351 350 349 348 347 347 349 348 346 344 343 344 345 344 343
348 347 346 348 349 349 349 350 350 350 351 352 353 354 355 354 353 352 352 352 350 349 347 345 344 346 349 350 351 351 351 351 348 346 346 346 347 348 349 350 350 349 350 351 350 349 350 351 352 352 351 351 353 354 355 355 354 354 353 352 351 352 354 355 355 356 354 352 353 353 352 350 349 348 346 347 348 347 345 344 345 345 345 345 345
349 347 347 349 348 349 349 349 350 350 350 351 352 353 354 354 354 353 353 352 351 350 348 346 345 347 349 350 350 351 350 349 347 347 346 345 346 347 348 349 350 351 352 352 351 349 349 351 353 353 352 352 352 355 355 354 355 354 354 353 352 352 353 354 356 357 354 352 353 355 354 352 350 349 347 347 347 348 347 344 344 345 344 346 346
350 348 348 349 348 348 348 349 350 350 351 351 351 352 353 354 354 353 353 352 352 351 349 347 346 347 349 350 350 350 349 348 347 347 346 345 346 347 347 348 349 350 352 353 352 349 348 350 351 353 353 352 352 354 355 356 357 356 355 354 353 353 353 354 356 356 355 354 354 356 355 352 351 350 348 350 349 348 348 345 345 346 345 346 346
350 349 349 349 349 348 348 349 350 350 351 351 351 352 353 353 354 354 353 352 351 351 350 348 347 348 349 349 350 350 348 348 347 347 347 346 346 347 347 347 348 349 352 355 354 350 347 348 349 351 352 352 353 354 355 356 357 357 355 354 353 353 353 354 355 357 357 356 356 356 355 353 353 352 350 352 352 352 352 349 347 349 347 347 347
351 350 350 349 349 349 348 349 350 351 351 351 351 352 352 353 353 354 354 352 351 351 350 349 347 347 349 350 350 349 348 348 347 347 346 346 346 346 347 347 348 349 351 355 354 349 347 347 348 349 350 352 353 354 355 355 355 356 355 354 354 354 354 354 355 357 357 357 357 356 355 354 354 354 353 352 352 353 354 351 350 351 349 347 348
351 351 350 350 350 350 349 349 350 350 350 351 351 351 352 353 353 354 354 352 351 351 350 349 347 347 348 350 350 349 349 348 347 347 346 346 345 346 347 348 348 348 349 350 350 349 348 347 347 347 348 350 352 353 354 354 355 355 354 355 356 355 355 354 355 357 357 357 357 357 356 356 355 356 354 352 352 352 352 352 354 353 349 347 350
351 351 350 350 352 351 349 349 350 350 350 350 351 352 352 353 352 353 354 353 352 351 350 349 348 348 349 350 350 349 349 348 347 347 346 346 345 345 346 347 348 348 348 348 348 349 348 347 347 347 347 349 351 352 353 354 354 354 354 354 355 355 354 354 354 356 357 357 358 358 358 357 357 357 355 354 353 353 353 355 356 355 351 349 351
351 351 351 351 353 353 350 349 349 349 350 350 350 352 352 352 352 352 353 353 351 350 350 349 348 348 349 349 349 349 349 349 348 347 346 345 344 345 345 346 347 347 347 347 348 348 348 347 347 347 347 348 351 352 353 354 353 353 353 353 354 355 354 353 353 355 357 358 358 358 358 358 358 358 357 356 356 355 356 357 356 354 353 353 352
350 351 351 352 354 354 352 350 348 349 349 349 351 351 351 352 352 352 352 353 352 351 351 350 349 349 349 349 349 349 349 348 348 347 346 345 345 344 345 345 346 347 347 348 347 348 348 348 348 348 347 348 350 352 353 353 353 352 352 352 353 355 353 353 353 355 357 358 359 359 359 359 359 359 359 359 358 356 356 357 356 352 351 354 354
350 351 351 352 354 354 353 351 349 349 348 349 350 350 351 351 351 352 353 353 353 352 352 351 351 350 350 350 350 349 349 349 348 347 346 345 345 345 345 345 345 346 347 347 348 348 348 349 349 349 348 348 350 352 352 353 353 353 352 351 352 353 353 353 353 354 356 357 358 359 359 359 360 359 359 359 358 356 356 357 356 352 349 354 357
350 351 350 351 353 353 353 353 350 349 348 349 349 350 350 350 351 352 352 352 352 352 352 352 351 351 351 350 350 350 349 349 348 348 347 346 345 345 345 345 345 345 346 347 347 348 348 348 348 349 349 349 349 352 352 353 353 354 353 353 353 351 352 354 353 354 356 355 355 357 358 358 358 358 358 359 357 356 356 357 357 354 351 352 356
348 350 350 350 351 353 353 353 352 349 348 348 348 349 349 349 350 351 351 352 352 352 352 352 352 352 351 350 350 349 349 349 348 348 348 347 346 345 345 345 346 345 345 346 347 347 347 347 347 348 349 349 349 350 352 353 353 353 354 355 355 352 350 354 354 355 356 354 353 355 356 356 356 356 357 358 357 356 356 356 356 356 354 353 354
346 349 350 349 351 352 352 352 352 350 348 348 347 348 349 348 349 350 351 352 352 352 352 352 352 352 352 351 350 350 349 349 349 348 348 348 347 346 345 345 345 345 345 345 346 347 347 347 346 346 348 349 348 348 350 352 353 353 353 354 354 352 352 354 355 355 356 354 353 354 355 354 353 355 357 357 356 356 357 357 356 356 357 356 355
344 348 349 349 351 352 351 352 351 350 349 348 347 347 348 348 349 350 350 351 351 351 352 352 352 352 352 351 351 351 350 349 349 349 348 348 347 346 345 345 345 344 344 344 345 346 347 347 347 346 346 347 347 347 348 350 352 352 353 354 354 353 353 354 354 354 355 355 354 354 355 355 353 353 355 356 356 356 356 357 357 357 358 358 356
340 344 347 350 352 351 351 351 351 350 349 348 347 347 347 348 348 349 350 350 350 351 352 352 352 351 351 352 351 351 350 349 350 350 349 349 348 346 345 344 344 345 344 343 344 346 346 346 346 345 345 345 345 346 347 348 349 350 352 354 354 353 353 354 355 355 355 355 355 355 356 357 355 353 354 354 355 356 356 357 357 357 357 358 357
337 339 341 346 350 352 352 352 352 351 350 349 347 346 346 347 347 348 349 350 350 350 351 352 352 352 352 352 352 352 351 350 350 350 349 349 348 348 346 344 344 345 345 343 343 344 346 346 345 344 344 344 344 344 345 346 347 348 350 352 352 352 351 353 354 354 355 355 354 355 356 357 355 353 352 353 353 354 355 356 357 357 356 357 357
334 336 337 340 342 346 351 353 354 353 350 350 348 346 346 346 347 348 348 349 350 350 351 351 352 352 352 352 352 352 351 351 350 350 349 349 349 349 347 345 345 346 345 344 342 343 344 344 343 344 344 343 343 343 343 344 344 345 347 348 349 349 349 350 352 352 353 353 353 354 355 354 354 354 353 353 353 353 353 355 356 357 357 356 357
332 333 334 336 337 340 344 347 351 352 351 351 349 348 346 346 346 347 348 348 349 349 350 351 351 351 351 352 352 352 352 351 350 350 350 349 349 349 348 346 345 346 346 345 343 343 342 342 342 343 344 343 341 341 342 343 343 344 345 346 347 346 347 347 348 349 350 350 351 352 353 352 352 354 355 356 354 351 352 355 355 355 357 356 356
330 331 332 333 335 338 340 342 344 348 350 351 350 349 347 346 346 346 347 348 349 350 350 351 351 351 352 352 352 352 352 352 351 350 350 349 349 349 348 347 346 345 346 346 345 344 341 341 342 343 344 342 341 341 341 342 343 344 344 345 345 345 346 346 345 346 347 348 348 349 351 351 350 350 353 355 355 353 352 352 353 353 355 356 356
328 328 329 330 332 334 337 339 341 343 346 349 351 351 349 348 347 346 347 347 349 349 350 351 351 351 352 352 352 352 352 352 351 350 350 349 349 349 348 348 346 345 345 345 345 345 342 340 342 344 344 343 342 341 341 341 342 343 343 343 344 345 346 348 347 345 345 346 346 346 349 351 350 348 347 351 354 355 355 354 352 351 352 355 357
327 327 328 328 329 331 334 336 338 340 342 344 347 350 351 351 349 347 346 347 348 349 350 350 351 351 353 353 352 352 352 352 351 350 349 349 349 349 348 348 347 346 346 345 345 345 344 342 342 342 343 343 343 342 341 341 341 343 343 343 344 344 345 347 347 345 344 342 341 343 347 348 347 345 344 346 349 350 353 355 356 353 351 353 356
326 327 327 327 327 329 331 333 335 337 339 341 343 345 347 351 351 350 348 346 348 349 350 350 350 351 352 353 352 352 351 352 351 349 349 349 349 349 349 348 348 347 346 346 345 345 345 344 343 343 343 343 343 343 341 340 340 342 342 343 344 343 344 345 344 343 343 341 340 342 343 342 341 341 344 345 346 347 348 350 353 354 353 354 357
325 326 326 326 327 328 329 330 332 335 337 339 341 342 345 347 350 352 351 348 348 349 349 350 350 351 352 352 352 351 350 351 350 349 349 349 349 349 349 348 348 347 347 346 345 345 345 345 345 345 345 345 344 342 340 339 340 341 342 343 343 343 343 344 343 341 341 341 342 342 343 342 340 339 341 343 343 345 346 346 347 349 351 353 356
323 324 325 326 326 328 329 329 330 332 334 336 338 341 343 346 348 351 353 352 350 349 349 349 350 351 352 351 351 351 350 350 349 349 349 348 348 349 349 348 347 347 347 346 346 346 346 345 345 346 346 346 344 342 340 339 340 341 342 342 343 344 345 344 343 341 339 340 342 345 347 347 343 339 341 343 343 343 344 345 346 346 348 350 351
322 322 323 324 325 327 328 328 329 331 332 334 336 338 341 345 348 350 353 354 353 352 350 350 350 351 352 350 350 351 351 349 349 349 349 349 349 349 349 348 348 348 347 346 346 347 346 346 346 346 346 346 345 342 341 340 341 341 341 342 343 345 346 346 344 341 340 339 341 343 346 347 343 340 341 344 344 344 343 344 346 347 348 349 349
321 322 323 323 324 326 326 327 329 330 331 332 334 336 338 342 347 349 352 353 354 355 354 352 352 353 352 350 351 352 352 351 350 350 350 350 350 350 349 349 349 348 348 346 346 346 346 346 346 346 346 346 346 344 342 341 341 341 341 342 341 343 346 347 344 341 341 340 339 341 343 343 342 342 342 342 343 345 345 346 347 348 348 348 349
320 321 323 323 324 324 325 327 328 328 329 331 333 334 336 341 345 348 350 352 353 354 355 355 355 355 354 353 353 353 354 354 353 352 352 352 351 350 350 350 350 350 349 347 347 347 346 346 345 346 346 346 346 345 343 342 341 341 341 341 341 342 345 347 345 342 341 340 339 340 341 341 341 342 342 342 344 346 348 350 350 351 351 351 350
320 321 322 323 323 323 324 326 327 327 328 329 331 333 336 339 343 346 348 349 349 350 351 352 354 354 354 353 353 353 353 353 354 354 354 354 353 352 351 351 351 350 350 349 348 347 347 346 345 345 346 346 346 345 344 343 342 341 341 341 342 341 343 345 345 342 341 340 340 341 342 342 341 341 340 341 343 347 350 354 355 355 355 355 354
321 321 322 322 323 323 323 325 326 326 327 328 330 333 336 338 341 343 345 347 347 347 347 347 349 351 352 352 352 352 352 352 352 352 353 354 355 354 353 352 352 351 351 350 349 349 348 347 347 346 345 345 345 345 344 343 342 342 341 341 342 341 342 343 343 342 341 340 340 341 342 342 342 340 339 340 342 345 350 354 356 356 357 357 356
321 321 321 322 323 323 323 324 325 325 326 327 330 333 335 337 339 341 343 344 344 344 345 346 348 349 351 352 351 351 351 352 351 351 352 353 353 354 354 354 353 353 352 352 351 350 350 349 348 347 347 346 346 346 345 344 343 342 341 341 341 341 341 342 342 341 341 340 340 340 341 341 341 340 339 340 342 346 348 352 356 356 357 357 356
320 320 320 322 323 323 323 323 323 324 325 327 329 331 333 335 337 338 340 340 338 337 339 343 346 347 350 351 351 351 352 353 352 351 351 352 351 353 354 353 353 354 354 353 353 352 352 351 350 349 348 347 347 347 346 346 345 343 342 340 340 341 342 342 342 343 343 341 341 340 341 341 341 340 340 340 343 346 348 351 354 356 357 357 356
319 319 319 321 322 323 323 322 322 324 325 326 328 330 331 333 334 335 336 336 335 333 335 339 342 345 349 350 351 352 352 353 354 352 351 352 351 351 352 352 353 353 353 353 354 353 354 353 352 351 350 349 349 349 348 348 347 345 344 342 340 341 342 342 343 344 345 345 343 342 341 341 341 341 341 341 343 345 347 350 353 356 357 356 355
318 319 319 320 320 322 322 322 322 323 324 325 327 329 330 331 332 333 333 333 333 332 334 337 340 343 348 350 350 351 351 352 353 353 352 353 352 352 352 352 352 350 349 352 356 355 355 355 354 354 353 351 351 351 350 350 349 348 347 344 342 342 342 343 344 345 346 347 347 345 343 343 342 342 342 343 343 344 346 348 351 354 354 351 350
316 318 319 319 319 320 321 322 322 322 323 324 326 327 329 329 330 331 330 331 331 331 333 337 338 340 346 350 351 351 351 350 351 352 352 352 353 354 354 353 353 352 350 353 357 358 358 357 357 357 356 355 354 353 352 352 351 350 349 347 345 345 344 344 345 347 347 347 348 347 345 345 344 344 344 344 344 345 346 348 349 349 349 348 348
315 316 317 318 318 319 319 320 321 321 322 324 325 327 328 329 329 329 329 329 331 331 332 336 338 339 344 347 349 350 351 351 351 351 350 351 353 354 354 353 354 354 353 352 353 356 359 359 359 359 359 358 357 356 355 354 354 353 352 350 349 348 347 346 346 348 348 348 348 348 347 346 346 345 345 345 345 345 346 347 347 347 347 348 349
315 315 315 317 317 318 318 319 319 321 322 323 325 327 328 328 328 328 328 329 330 330 331 333 335 337 340 342 343 346 349 351 352 353 352 351 352 352 353 353 353 353 354 353 352 355 359 361 360 360 361 360 360 359 358 357 356 355 354 353 352 351 350 348 347 348 349 349 350 349 348 348 347 346 347 347 346 347 347 346 347 347 347 348 350
314 314 315 315 316 317 317 318 319 320 321 322 324 326 327 328 327 327 328 328 329 330 331 332 333 334 336 337 338 340 342 345 349 352 353 353 353 352 352 353 353 354 355 355 355 357 361 362 362 361 361 361 361 361 360 359 358 357 356 355 354 353 352 350 348 348 349 350 350 350 349 349 349 348 347 347 347 347 347 347 347 348 348 349 350
313 314 314 314 315 315 316 317 318 319 320 321 323 324 325 326 327 326 327 328 328 329 331 332 333 333 334 334 335 337 339 341 344 347 350 352 352 352 352 352 353 355 356 357 357 359 362 362 362 362 362 362 362 362 361 361 359 358 357 357 355 354 354 352 350 350 350 349 350 350 350 349 349 348 348 347 348 348 347 348 348 348 349 350 350
313 313 314 314 314 315 316 316 317 319 319 319 321 323 324 325 326 326 326 327 328 329 330 331 332 332 333 334 335 336 338 341 343 345 348 350 351 352 353 353 353 354 356 358 358 360 361 361 361 362 362 363 362 362 362 362 361 359 357 357 356 355 353 352 351 350 349 349 349 349 349 349 348 348 348 348 348 348 348 348 349 349 350 351 351
312 313 313 313 314 314 315 316 317 318 319 319 320 323 323 323 324 325 325 326 327 328 329 330 331 332 332 334 335 336 338 341 344 346 349 351 352 354 355 355 355 355 356 357 358 359 361 361 362 363 363 363 363 362 362 362 362 360 358 357 356 356 354 353 352 351 350 349 348 348 348 348 347 348 348 348 348 349 349 349 349 350 350 351 352
312 312 312 313 314 314 314 315 315 317 318 319 320 322 323 322 322 323 324 325 326 327 328 329 330 331 332 333 335 337 339 340 342 345 348 350 352 353 354 355 356 356 357 357 357 358 359 360 362 363 363 364 364 363 363 362 361 360 359 357 356 356 355 355 355 353 350 347 347 347 349 349 349 349 349 350 350 350 351 350 350 351 351 352 352
311 311 312 312 313 313 314 314 315 316 318 319 320 322 323 323 322 322 322 324 325 326 326 327 329 330 332 334 335 336 337 339 340 342 345 347 348 349 350 351 352 354 355 355 355 356 357 358 360 362 363 363 363 363 362 361 360 360 359 358 357 356 356 356 356 353 349 346 346 348 349 350 351 351 352 352 353 353 353 353 352 352 352 352 353
310 310 311 311 312 312 313 314 314 315 317 319 320 322 323 324 323 322 321 322 324 325 325 326 328 329 331 332 334 335 336 337 339 341 344 346 347 348 348 349 349 350 352 354 354 355 355 355 356 358 359 360 361 361 361 360 359 359 358 358 357 357 356 356 355 352 348 345 346 349 350 350 352 352 353 353 354 355 355 355 355 354 353 353 353
Wind_Speed
15 18 19 20 19 19 18 18 19 18 18 20 21 22 22 21 18 17 16 17 16 16 17 16 15 14 13 12 11 10 11 11 10 9 8 8 8 7 8 8 7 7 6 5 5 5 4 3 2 1 1 1 2 2 2 2 2 2 2 1 1 1 2 3 3 2 1 1 2 2 4 5 5 7 7 6 6 6 6 8 8 7 7 7 7
14 16 19 20 19 20 19 18 19 20 19 21 21 22 23 22 20 19 17 17 20 20 21 20 18 17 15 13 11 9 11 11 10 10 9 8 8 7 8 8 8 8 7 6 6 6 5 4 3 2 2 2 2 2 2 2 1 2 2 1 0 0 1 1 1 1 2 1 1 2 3 3 3 4 5 5 4 4 5 7 8 7 6 6 6
15 16 18 20 20 21 19 18 20 20 20 21 22 21 22 22 21 22 20 19 22 23 23 22 21 20 16 14 12 9 11 12 10 10 10 9 9 8 7 8 9 9 8 8 7 6 5 4 3 3 2 2 2 2 2 2 1 2 2 1 1 1 1 1 1 2 1 1 1 2 3 2 2 3 5 5 3 4 4 5 6 7 5 5 6
15 16 18 20 21 21 20 19 19 20 20 21 22 21 22 22 23 25 25 24 25 25 25 23 22 21 18 16 14 11 11 12 11 11 11 10 10 9 8 8 8 9 9 8 8 7 5 4 4 3 3 3 2 2 3 2 1 2 2 1 1 2 2 2 1 2 1 2 1 1 1 1 2 4 6 4 4 4 4 5 6 6 6 6 7
16 17 17 20 21 21 21 21 20 20 20 21 22 22 22 23 26 28 28 27 27 26 26 24 23 21 19 17 15 13 12 12 11 10 11 11 10 10 10 9 9 9 9 8 8 7 6 5 4 3 3 3 3 3 3 2 2 2 2 2 2 2 2 2 1 2 2 2 2 1 1 1 2 5 5 2 4 5 4 5 6 6 5 6 7
15 16 17 20 22 22 22 22 22 21 21 21 22 23 23 24 27 28 28 29 28 27 26 26 25 23 21 18 15 13 12 11 12 11 10 10 9 10 10 10 10 10 9 9 9 8 6 5 4 4 4 4 4 4 3 3 2 2 3 3 3 2 1 1 1 1 1 1 1 1 2 2 3 6 4 2 4 4 5 7 6 7 6 6 8
15 16 18 20 23 23 23 23 23 22 21 21 22 23 23 24 28 29 29 30 29 28 28 27 26 25 25 21 16 14 12 13 15 13 12 11 9 9 10 10 11 10 10 10 9 8 7 6 5 5 5 5 5 4 4 3 2 2 3 4 4 2 2 1 1 1 0 0 0 0 1 2 3 5 3 3 3 3 6 8 7 8 8 7 8
15 16 18 20 23 24 24 25 25 24 22 21 21 22 23 25 29 31 31 31 30 30 29 29 29 28 27 24 19 18 14 14 17 15 13 12 10 10 10 10 11 11 11 10 10 9 8 7 6 6 6 6 6 5 4 3 2 2 3 4 5 3 2 1 1 1 2 1 0 0 1 2 3 4 3 3 3 3 5 7 7 9 8 7 9
17 17 18 21 24 26 26 26 26 25 23 23 23 23 24 26 29 31 31 31 31 31 31 30 31 30 29 26 22 21 17 16 17 16 14 13 11 11 11 11 11 11 11 10 11 11 10 8 7 7 7 7 7 5 4 3 3 2 3 3 4 4 2 1 0 1 2 2 1 0 1 2 2 2 2 1 2 2 3 5 7 8 7 8 9
17 18 18 22 26 27 28 27 27 27 24 24 24 23 23 25 27 30 31 31 32 32 32 31 32 31 30 28 25 22 21 19 18 17 16 15 13 12 12 12 12 11 10 10 10 11 11 10 8 7 7 7 7 6 4 4 3 2 2 3 3 3 3 1 1 1 2 1 1 1 1 2 2 2 2 1 2 2 3 4 6 7 7 7 8
17 17 19 23 25 26 27 27 28 27 24 24 24 23 23 24 26 30 31 32 32 32 33 32 33 32 32 31 28 25 23 21 19 18 18 17 16 15 14 14 14 13 12 10 10 12 12 11 10 8 7 7 7 6 5 4 3 2 2 2 3 2 2 1 1 2 2 1 2 1 1 1 1 1 2 3 3 3 3 4 5 7 7 5 8
16 16 17 19 21 23 25 26 27 26 25 24 25 24 24 24 26 28 29 31 32 33 33 33 33 34 34 32 30 27 26 24 22 21 20 19 18 17 15 15 15 15 13 11 11 13 14 13 12 10 9 8 8 7 6 5 4 3 2 2 2 2 2 2 2 2 2 2 2 1 1 1 1 1 1 2 3 3 4 4 5 6 5 5 7
15 15 16 16 16 20 25 25 25 26 25 26 26 25 24 25 27 27 28 32 33 32 33 34 35 36 35 34 31 30 28 26 25 24 22 21 20 19 17 16 16 16 15 13 13 14 15 14 14 12 11 10 8 7 6 5 4 4 3 2 2 3 3 3 3 3 3 3 2 2 2 2 1 1 2 2 2 2 3 5 5 5 4 5 6
15 15 16 15 16 20 24 25 24 25 26 27 27 25 24 25 27 28 29 32 34 33 34 34 36 37 37 35 33 31 30 29 28 26 25 24 23 21 19 17 17 18 17 15 15 15 15 15 15 14 13 11 10 8 7 6 5 5 5 4 3 4 4 4 4 3 3 4 3 3 3 3 2 2 2 3 3 3 3 5 5 5 4 4 4
15 16 17 17 19 22 23 23 25 26 28 28 27 26 25 25 28 30 29 30 33 33 34 35 36 37 37 36 34 33 32 31 29 28 27 27 25 24 22 20 18 18 18 16 15 14 15 16 15 14 14 13 11 9 8 8 7 6 6 5 4 4 4 4 4 3 4 4 4 4 4 4 3 3 3 3 3 3 4 4 5 4 3 4 4
15 16 17 18 21 23 23 24 25 26 28 29 28 27 26 26 30 32 31 32 34 35 35 36 36 37 37 37 35 34 33 32 31 30 29 29 27 26 25 22 20 19 18 17 15 15 15 15 16 16 15 14 13 11 10 9 9 8 8 8 6 5 4 4 4 4 4 4 4 4 5 4 4 3 3 3 3 3 3 3 3 2 2 3 4
15 15 16 18 20 23 24 24 26 26 28 29 28 29 30 30 30 32 31 31 33 35 36 36 36 37 37 37 35 34 34 33 32 31 29 29 28 27 26 24 22 20 19 19 17 16 15 15 16 17 16 15 14 13 11 10 10 10 10 10 8 7 5 4 3 4 4 4 4 4 4 4 4 4 4 3 3 4 4 4 3 1 1 2 3
15 17 17 17 20 24 25 25 26 28 29 29 29 30 33 33 31 32 31 30 32 33 33 34 36 36 36 37 37 36 35 34 32 31 30 29 29 27 26 25 24 22 20 20 19 17 16 15 16 17 17 16 16 15 14 12 11 11 11 11 11 10 7 6 5 5 5 5 5 5 5 4 4 4 4 3 4 4 4 4 4 2 2 1 2
11 15 16 15 18 23 25 25 26 27 27 28 29 30 30 31 31 32 33 33 34 33 31 33 35 34 34 37 38 38 36 35 33 33 32 30 30 29 28 27 26 24 22 21 19 19 18 17 16 16 17 17 17 16 15 14 13 12 12 11 12 12 10 9 8 6 6 6 7 6 6 5 5 5 5 4 5 5 5 5 5 4 3 3 3
10 13 14 14 17 21 23 24 25 26 26 27 28 29 30 30 30 30 30 31 33 32 31 34 34 32 32 36 38 38 38 36 35 34 33 32 32 31 30 28 27 26 25 23 21 20 19 18 17 16 16 17 18 18 17 15 14 14 13 11 11 13 13 12 10 9 7 8 8 8 8 7 7 6 6 6 6 6 6 5 5 5 5 5 4
8 10 13 12 15 20 22 23 23 23 24 26 27 28 29 29 29 29 29 29 30 30 29 31 32 30 32 35 36 37 38 37 35 34 34 34 33 33 32 30 28 27 27 25 24 22 21 20 18 17 17 17 17 18 18 17 16 15 15 13 13 14 14 13 12 11 10 10 10 10 9 10 10 9 8 7 7 7 7 6 6 6 6 6 6
11 4 9 11 13 18 20 22 22 22 22 24 25 26 27 27 28 29 29 29 30 29 28 30 31 30 32 34 32 33 36 36 33 32 33 34 34 34 33 32 30 29 28 28 27 25 24 22 21 20 19 18 18 17 17 18 17 17 16 15 15 15 15 15 14 14 13 12 12 12 11 11 11 12 11 9 8 8 8 8 7 6 6 7 7
16 12 5 4 10 17 19 20 21 21 22 25 25 25 26 27 27 27 28 29 29 28 27 30 33 33 34 33 30 30 33 34 32 31 31 32 32 34 34 33 32 29 28 29 28 27 27 25 24 23 22 21 20 19 18 18 18 18 17 16 15 16 17 16 15 15 14 14 14 14 12 11 11 12 12 11 9 9 9 8 8 8 8 8 8
18 17 14 12 6 4 12 17 19 18 19 22 25 25 25 26 26 27 28 28 28 27 26 28 32 33 31 30 29 29 29 30 31 30 30 30 29 29 32 34 32 29 28 30 29 29 28 27 25 24 24 23 23 22 20 20 19 18 18 18 17 17 18 17 16 16 15 15 15 15 13 12 12 13 12 11 10 10 10 9 9 10 10 9 9
18 18 17 18 17 12 7 3 9 17 20 20 21 23 25 26 27 27 27 28 27 26 25 27 29 29 28 28 29 28 27 29 30 29 29 29 27 25 29 33 32 29 28 30 30 30 29 29 27 26 25 25 24 23 22 21 20 20 19 18 18 18 19 18 19 18 18 18 17 17 16 14 14 13 12 12 11 11 11 10 10 10 10 10 10
18 18 17 16 15 16 18 17 9 4 14 19 20 22 24 25 27 28 27 27 28 27 26 26 27 28 27 28 28 28 28 29 30 29 27 27 27 25 26 30 32 30 29 29 29 31 31 30 30 28 26 26 24 24 23 22 21 21 21 20 20 20 20 20 20 20 20 20 20 19 18 17 16 15 13 12 12 13 12 12 11 11 10 10 10
16 16 17 16 16 16 19 20 19 14 6 7 16 22 23 23 25 26 26 26 26 26 26 26 27 27 27 27 28 29 29 28 29 30 28 26 27 27 26 28 31 31 30 28 27 30 32 32 31 30 28 27 26 25 25 24 24 23 23 23 22 22 22 22 22 22 21 21 21 21 20 19 19 18 16 14 13 13 13 13 13 13 11 11 10
16 17 17 17 16 16 18 20 19 19 18 12 2 9 16 21 24 25 25 25 25 25 25 26 26 26 26 28 28 28 28 28 29 31 32 30 27 27 27 28 30 32 32 30 28 29 33 34 33 32 31 29 28 28 28 27 27 26 25 25 25 25 24 23 23 23 22 22 22 22 20 20 20 21 19 17 15 14 13 13 14 14 14 13 11
17 17 16 16 15 15 17 20 20 20 20 18 15 10 4 8 18 24 25 24 25 25 25 25 26 26 27 28 27 25 25 27 30 34 36 34 29 27 28 29 30 31 31 29 29 28 30 34 34 34 33 32 31 31 31 31 30 29 28 27 27 27 26 25 25 24 23 23 23 23 22 21 22 21 20 19 18 17 16 14 14 15 15 14 12
15 16 15 14 15 15 16 18 20 22 21 19 17 16 13 9 5 15 22 24 24 24 26 27 27 28 28 28 27 28 27 27 33 37 38 37 33 28 27 28 30 31 30 29 30 28 27 30 33 35 35 34 34 34 34 34 32 31 30 29 29 29 28 27 27 26 25 25 24 24 24 24 24 23 22 21 20 19 18 17 16 16 16 14 13
13 14 14 14 14 15 17 19 20 21 21 19 18 17 14 13 10 6 11 19 23 24 26 27 28 28 27 28 30 33 33 32 35 39 38 38 36 30 27 29 31 31 31 31 31 29 27 26 27 31 33 33 35 37 37 36 35 33 32 31 31 31 30 29 29 28 27 26 25 25 25 26 26 26 24 23 22 20 19 19 18 18 18 17 15
13 13 13 13 14 15 17 18 19 20 21 20 19 18 16 13 13 12 8 9 17 24 26 27 28 26 25 29 32 33 35 37 37 38 38 38 37 32 30 31 31 31 32 32 29 29 30 28 25 26 28 30 34 38 39 38 38 36 35 33 32 31 30 29 29 30 30 29 27 25 24 24 26 27 25 24 23 22 21 20 19 19 19 19 19
12 12 12 12 13 15 17 18 18 18 20 19 18 17 17 15 13 12 11 9 9 17 23 26 25 23 26 33 34 31 34 37 37 38 38 37 36 34 33 33 32 30 30 32 31 30 31 31 28 26 27 28 32 37 40 40 39 38 37 35 34 31 29 29 30 31 31 31 30 28 26 26 28 28 27 25 24 24 23 22 21 20 20 20 21
11 11 12 13 15 16 17 19 18 19 20 19 18 18 17 15 13 11 10 10 8 7 13 20 22 20 24 30 30 28 31 35 36 37 35 33 33 34 34 31 28 27 28 33 34 30 31 33 31 30 31 30 30 35 39 40 39 39 38 37 35 33 30 29 31 33 32 32 32 31 30 30 30 30 29 27 26 25 24 23 22 22 22 22 21
11 11 12 14 17 17 18 19 19 20 20 18 20 21 20 16 13 11 9 10 10 9 4 4 9 11 14 18 21 22 23 25 28 29 30 30 32 34 33 29 25 24 28 34 35 29 30 35 36 33 32 31 32 35 37 38 39 39 38 37 36 35 32 30 32 34 34 34 34 33 32 32 31 31 31 29 26 25 24 23 22 22 22 22 23
11 13 13 15 16 17 18 18 18 19 20 19 20 22 21 19 16 12 10 9 8 7 6 4 1 3 7 13 19 23 23 23 23 23 24 26 28 32 33 30 25 23 24 28 31 29 29 33 35 33 31 31 33 36 37 38 39 38 37 36 36 37 35 33 33 35 36 36 35 34 34 34 33 33 32 30 28 25 23 21 21 21 20 20 22
13 14 14 14 15 16 17 17 16 18 19 20 20 20 19 17 17 16 14 11 8 6 4 4 4 5 7 10 15 20 24 26 25 23 24 24 25 28 30 28 25 23 23 24 26 28 29 30 30 30 32 34 36 38 38 38 38 37 36 36 36 37 37 36 36 37 37 37 37 37 36 35 35 35 33 31 29 27 24 22 21 20 19 19 21
14 14 14 15 15 15 16 16 16 17 18 19 19 18 17 15 15 16 15 12 11 11 10 6 4 5 6 7 11 15 18 21 23 25 26 25 24 24 25 27 26 25 25 25 25 25 26 27 27 29 32 35 36 37 38 38 38 37 36 37 37 37 37 38 38 38 39 39 38 38 37 36 36 36 34 32 30 28 27 25 22 20 20 20 22
13 14 15 17 16 15 15 16 16 17 18 17 18 17 16 15 15 16 14 12 14 16 14 10 7 7 6 6 8 11 13 15 19 25 27 27 27 25 23 25 26 26 26 25 24 23 24 25 26 28 31 34 34 34 35 37 37 37 36 37 38 37 36 37 38 37 38 40 41 40 38 38 38 37 34 33 32 30 29 27 24 21 20 22 23
14 14 15 16 15 15 17 17 17 17 17 16 16 16 15 15 14 14 13 13 15 17 15 11 10 9 7 6 6 8 11 13 17 24 29 30 30 27 24 25 26 28 28 26 24 24 25 25 26 27 29 31 33 34 34 36 36 36 36 37 37 37 37 38 37 36 34 35 38 40 40 39 39 37 35 34 33 32 31 29 25 22 22 24 24
16 14 13 14 15 15 16 17 17 17 17 16 15 15 15 14 12 12 13 14 15 17 16 13 11 10 8 7 6 7 10 12 15 22 27 29 29 27 27 28 29 30 31 28 24 24 25 25 25 26 27 29 32 34 34 35 36 36 36 36 37 39 40 39 37 35 33 30 32 37 40 39 38 37 35 34 35 34 33 32 29 28 28 28 27
20 17 13 13 15 15 16 16 17 18 17 16 15 14 13 13 13 13 14 15 16 16 15 14 12 12 11 9 7 6 7 10 13 17 20 22 24 24 24 25 26 28 30 27 24 24 24 24 24 25 26 28 31 34 35 35 36 36 36 37 38 40 41 38 32 31 32 31 30 34 40 39 37 36 35 33 34 34 33 33 33 33 32 30 30
22 21 18 17 16 15 15 16 17 18 17 16 15 13 12 12 13 14 14 15 15 15 15 13 12 12 12 12 10 9 9 9 12 14 15 16 19 20 21 22 23 24 25 26 28 28 26 25 26 26 26 27 29 33 36 37 37 36 37 38 39 40 40 38 33 30 32 34 33 35 40 39 36 36 35 33 32 32 32 33 33 33 32 30 31
22 23 22 20 18 16 16 15 15 16 17 16 14 14 14 13 13 14 14 14 14 14 15 14 13 12 13 15 14 12 13 14 13 11 12 13 15 17 19 21 22 23 23 27 32 32 29 28 29 28 28 28 28 29 33 37 38 37 37 38 39 39 40 40 37 34 33 31 32 35 38 38 36 36 35 33 32 30 30 31 30 30 31 31 32
21 23 23 21 21 20 18 16 14 14 16 15 14 13 14 15 15 15 14 14 13 14 15 14 13 12 13 16 16 15 16 18 17 14 12 12 13 16 18 18 19 21 23 29 34 32 29 29 29 28 29 29 28 27 27 31 35 37 38 39 40 40 39 40 42 41 37 32 32 34 36 37 36 35 34 33 33 32 31 30 30 29 30 32 34
18 20 22 23 23 22 20 17 15 13 13 14 14 13 13 14 15 15 15 13 12 13 14 13 12 12 13 15 18 17 17 18 19 17 15 14 14 16 17 17 18 19 23 29 33 32 30 29 29 29 28 27 27 27 26 27 30 34 37 38 39 40 40 40 41 43 41 38 36 36 36 36 37 36 35 34 34 33 31 30 30 30 31 33 34
17 18 20 21 23 23 22 20 17 13 12 13 14 13 13 13 13 14 15 14 13 12 13 13 13 12 11 12 15 17 17 19 20 17 15 15 17 19 18 18 18 20 24 28 31 30 30 29 28 28 26 24 25 26 26 25 25 28 33 36 37 38 39 40 41 44 44 42 41 40 39 39 37 36 36 36 35 34 33 33 34 34 34 34 34
18 18 19 18 20 23 24 24 21 15 13 13 14 13 14 14 14 13 14 14 14 13 13 14 15 13 11 11 13 15 16 17 18 17 15 15 17 19 20 21 22 23 26 29 29 28 29 29 27 25 22 21 23 25 27 25 22 22 27 32 36 39 39 40 43 44 43 43 42 39 37 37 36 35 34 34 34 34 36 37 37 36 36 36 36
19 19 19 18 18 21 24 27 25 19 15 15 15 14 14 16 16 14 12 13 14 14 14 16 16 14 11 11 12 13 14 16 17 17 16 17 19 20 22 24 26 26 27 28 28 27 26 25 24 24 21 20 22 25 27 28 27 26 27 29 33 38 40 41 42 41 39 40 39 34 28 27 29 29 28 28 28 28 31 34 36 36 35 34 34
20 20 20 20 20 20 22 27 28 22 17 16 16 14 13 13 14 14 13 11 12 14 14 15 16 15 12 12 13 13 14 16 17 16 16 18 22 23 24 26 28 29 29 31 31 33 32 28 25 25 24 24 26 27 26 26 28 31 33 33 33 35 37 38 38 36 34 31 29 27 26 26 25 25 25 25 25 23 25 27 29 32 33 32 31
23 22 22 22 22 22 22 26 28 25 20 17 16 14 12 11 10 11 11 10 11 12 13 13 14 15 14 15 15 14 14 16 17 17 16 17 20 23 25 27 29 29 30 32 34 37 39 37 35 34 32 31 32 32 30 30 30 30 32 34 35 35 35 35 34 33 33 30 26 24 26 27 26 26 26 26 25 23 24 25 24 26 31 35 34
Wind_Direction
192 190 191 191 190 188 186 185 183 181 182 182 181 183 187 188 186 186 189 191 191 193 197 197 196 196 199 204 208 213 217 219 219 218 220 221 218 217 219 220 220 213 200 197 209 215 214 216 222 240 265 298 313 329 340 341 356 340 335 7 9 338 331 325 325 316 280 276 299 311 320 320 321 327 326 323 327 330 331 334 334 326 324 331 329
192 189 190 192 192 190 187 185 183 182 182 184 185 184 187 189 190 189 189 193 196 198 200 200 200 199 196 200 204 208 216 218 218 218 220 223 222 218 219 219 218 215 208 206 216 222 222 225 240 261 267 288 306 306 311 325 331 315 317 355 83 208 301 329 357 323 269 267 336 331 336 338 340 334 326 322 320 322 327 328 333 334 327 332 335
193 192 191 193 194 192 189 187 188 187 184 186 187 185 186 188 191 194 193 196 201 203 203 203 204 204 202 203 204 206 214 215 216 222 224 228 228 222 220 218 216 216 211 211 217 223 227 231 241 256 261 275 292 288 289 290 286 292 292 292 187 180 167 109 62 21 312 156 48 352 359 3 69 37 351 347 338 320 326 323 325 330 328 332 337
193 195 195 195 194 193 191 190 190 189 186 187 188 186 187 189 193 198 200 202 204 205 205 205 205 207 209 212 213 217 221 220 224 232 234 234 231 226 221 217 217 219 216 215 219 225 230 228 233 248 258 260 259 265 273 274 273 284 276 246 215 194 159 139 81 43 75 127 54 26 357 347 97 26 355 10 20 348 339 330 326 327 323 333 339
194 196 196 194 194 193 193 192 190 191 189 188 189 189 189 192 197 201 204 206 206 205 205 205 206 207 210 214 218 222 223 223 224 227 231 231 227 223 220 216 216 218 216 216 220 226 230 232 238 246 255 253 250 260 263 255 244 255 260 235 220 214 165 147 126 74 95 108 52 63 18 34 57 3 352 28 19 12 13 351 343 341 329 336 347
195 197 195 194 195 194 193 193 192 193 194 192 191 192 192 193 199 201 204 207 208 207 205 205 206 206 208 209 209 210 211 215 215 212 217 220 217 217 219 216 215 216 215 216 219 225 231 240 249 250 248 245 245 256 258 257 246 235 240 229 219 213 183 170 165 110 82 72 53 52 26 22 1 349 350 355 354 17 18 7 9 5 358 5 11
196 197 195 194 195 194 193 193 195 196 196 194 192 194 193 193 198 201 204 207 208 208 206 205 206 208 210 209 208 207 205 212 218 217 219 219 216 217 218 216 215 216 217 218 219 223 230 238 245 243 237 234 239 252 255 247 221 217 224 221 225 218 189 209 221 200 43 37 57 61 7 354 342 345 346 341 347 360 3 13 26 16 16 25 26
197 196 194 194 196 196 195 194 197 199 196 193 192 194 194 195 200 202 204 206 207 208 207 206 207 209 211 211 214 215 211 216 222 222 222 223 221 219 220 219 218 218 219 221 221 221 224 229 233 231 226 227 235 245 247 233 204 213 222 219 228 227 198 196 245 268 264 236 69 249 276 326 341 352 349 340 343 334 352 15 18 13 23 32 32
198 197 195 195 195 196 196 195 196 199 196 193 193 194 194 197 201 202 204 206 207 208 208 207 208 210 211 212 216 218 217 221 225 225 225 225 225 224 224 224 224 224 222 221 221 221 221 222 225 225 224 228 235 240 239 230 215 213 224 226 230 228 219 220 229 301 276 246 251 305 312 321 334 3 14 356 358 347 352 6 3 3 16 25 27
201 200 198 196 195 195 195 195 196 198 196 193 193 193 193 195 199 201 204 206 208 209 208 208 209 210 212 213 215 218 219 221 224 226 227 226 227 228 228 227 228 229 226 222 221 221 220 219 221 222 225 229 232 234 230 230 228 216 219 233 235 232 229 244 271 290 293 253 227 262 324 328 336 8 28 26 16 4 338 343 357 358 357 6 10
200 200 200 198 196 195 195 195 196 196 194 191 191 192 193 194 197 200 204 206 208 209 209 209 209 210 212 214 215 216 217 218 220 223 226 226 226 228 231 231 231 231 231 228 225 223 221 219 221 222 224 225 225 227 228 232 233 221 221 240 250 252 249 274 281 276 287 245 218 237 292 312 337 352 12 12 359 359 341 333 353 354 343 344 355
201 200 200 197 193 192 194 196 195 193 191 190 191 192 192 193 195 197 201 205 207 209 209 208 209 210 213 215 217 217 217 218 220 222 225 225 225 227 231 233 234 233 231 226 224 226 224 220 220 221 219 218 220 223 226 230 233 232 231 243 269 285 294 305 294 279 276 253 238 238 257 268 284 322 334 349 348 359 347 330 346 351 335 333 351
205 202 200 197 192 189 192 193 190 189 190 190 192 193 191 192 193 194 198 204 207 208 208 208 209 212 213 215 217 218 219 221 223 225 227 228 227 228 232 235 234 232 228 223 225 229 227 223 220 220 218 217 218 220 226 228 230 238 239 245 277 295 307 311 297 281 270 263 266 259 258 262 258 296 302 299 317 335 334 334 344 339 322 332 352
204 203 201 200 196 191 191 190 187 188 191 192 193 192 190 191 192 194 199 204 206 207 208 208 210 213 214 216 218 219 220 223 225 226 228 230 231 231 233 236 236 233 231 231 232 232 229 226 224 223 222 220 218 220 225 227 226 234 241 244 267 290 305 304 293 281 268 263 266 267 271 270 272 292 288 283 289 298 322 340 342 328 314 326 345
205 203 201 202 199 193 190 188 188 189 192 194 194 191 189 189 192 195 197 201 204 207 208 209 210 212 214 216 218 220 221 224 226 227 229 231 232 233 234 237 239 237 236 237 237 235 233 231 228 227 227 223 221 220 224 229 229 231 238 242 258 283 304 304 288 270 259 259 262 267 274 273 281 292 280 277 279 289 318 339 341 328 319 334 341
209 206 203 202 200 195 191 190 190 190 191 193 193 192 190 190 195 198 198 200 204 207 208 210 211 212 214 216 218 220 222 224 226 228 230 231 232 234 235 238 241 241 240 240 240 239 238 235 232 231 231 228 223 220 223 231 234 235 238 241 253 275 300 304 287 269 255 256 259 262 270 273 279 287 281 277 270 276 305 327 333 317 302 337 343
212 209 206 203 199 196 194 192 191 190 191 193 192 192 192 193 195 197 198 200 202 206 209 210 212 212 214 215 217 220 222 223 226 228 228 229 231 234 236 238 241 243 243 243 244 243 242 240 237 235 234 231 226 224 226 232 237 240 241 242 247 259 279 288 280 271 256 249 254 254 261 267 268 275 274 274 277 282 294 310 328 307 251 324 342
224 211 207 204 200 199 198 196 195 193 192 193 192 193 195 196 196 196 196 197 200 204 206 208 211 212 214 215 217 220 222 223 225 227 227 228 230 232 234 236 239 242 243 244 246 246 246 245 242 240 238 235 231 230 232 235 239 243 244 246 246 248 259 266 267 272 261 247 248 249 257 263 258 262 263 267 284 288 286 293 309 305 245 252 321
249 218 209 204 203 202 201 199 198 194 192 194 194 194 196 197 197 197 198 199 201 202 202 207 211 211 213 216 218 220 221 222 224 226 228 229 231 232 233 235 237 240 241 244 246 246 246 247 245 244 243 240 237 235 236 237 238 243 247 249 248 246 249 255 260 266 262 253 249 250 259 263 257 259 262 267 281 287 287 284 286 294 273 240 265
274 232 214 206 205 204 203 201 200 196 193 193 195 195 197 198 198 199 199 199 201 200 201 205 208 208 211 215 217 219 221 222 224 227 228 230 232 233 234 235 236 238 240 242 244 245 245 246 247 247 246 244 243 240 239 240 240 242 245 246 249 249 248 252 256 257 258 258 256 256 261 263 264 268 270 270 274 277 283 285 280 282 277 262 259
305 240 215 206 204 203 203 203 202 199 193 192 195 197 198 199 198 199 198 198 199 199 200 204 205 205 210 214 216 218 220 222 224 226 228 230 232 233 235 235 236 238 239 240 242 243 243 245 247 249 249 249 248 244 243 244 245 245 247 249 252 253 249 249 254 255 255 258 260 261 264 267 270 271 271 272 271 269 270 273 276 274 268 267 266
355 294 220 207 199 199 201 200 199 197 191 190 194 197 198 199 199 200 200 200 200 200 200 203 204 205 210 213 214 216 219 221 221 223 226 228 231 234 234 234 235 238 239 239 240 242 244 244 245 248 251 252 253 251 247 246 248 249 250 250 252 254 251 250 254 257 258 260 264 265 265 267 271 272 271 270 267 265 263 264 267 268 264 264 268
15 15 355 239 204 198 199 198 195 192 189 189 192 195 197 199 200 200 202 203 203 202 201 203 206 208 211 212 210 212 217 218 218 220 223 225 229 232 234 234 234 235 237 238 238 240 243 244 245 247 249 250 253 254 252 250 251 252 251 250 251 254 253 251 253 256 259 261 264 266 264 262 267 271 271 268 264 262 262 263 263 264 265 264 267
20 24 21 14 6 209 204 202 194 187 188 191 192 193 196 199 201 202 204 205 203 202 201 202 206 209 209 209 209 211 212 214 215 217 221 223 224 227 231 234 233 231 234 238 237 237 240 243 245 247 247 248 250 252 253 253 253 254 254 252 252 255 255 255 255 256 258 260 262 264 263 261 264 270 270 267 263 260 260 262 261 260 263 262 264
21 23 25 24 19 12 354 284 203 191 193 193 190 191 195 198 200 202 204 205 203 203 203 203 205 206 206 207 209 210 210 211 214 216 219 221 220 221 227 232 231 228 230 236 236 235 237 240 242 245 246 247 247 250 251 252 253 254 254 253 252 254 256 258 260 261 262 263 263 264 265 265 265 265 264 261 259 259 258 258 257 255 256 258 261
21 21 22 23 20 16 11 4 357 225 204 198 192 193 196 198 199 201 203 203 202 202 202 203 204 204 206 208 209 209 210 212 214 216 218 219 218 218 223 230 231 228 229 232 234 235 236 237 240 243 245 246 247 248 249 249 250 251 252 252 252 254 257 259 262 263 264 266 266 266 267 268 267 263 257 254 257 261 260 256 255 254 252 256 259
21 21 20 18 17 16 13 10 10 7 345 215 200 200 201 199 199 202 203 202 201 201 201 201 203 204 206 208 209 209 210 211 214 216 217 217 219 219 220 226 230 230 229 229 229 234 237 238 240 242 243 245 246 246 247 248 249 250 251 251 250 252 256 259 262 263 263 264 266 266 266 267 268 268 263 258 259 261 260 258 258 257 254 255 256
17 18 16 13 12 11 9 10 11 11 11 10 334 215 209 204 200 200 202 202 201 200 200 200 202 205 207 209 210 210 211 212 214 218 220 219 218 220 221 224 228 230 231 229 227 232 237 239 241 242 244 245 245 245 246 247 248 249 250 250 250 251 253 255 260 263 263 262 264 265 264 262 264 268 268 266 263 261 260 259 259 259 257 254 253
12 12 10 8 7 6 5 6 9 11 11 11 11 4 326 227 209 203 202 202 200 199 200 201 202 205 208 210 209 209 210 213 216 221 225 223 220 220 222 224 227 229 230 229 228 229 234 238 240 242 243 244 245 245 246 247 247 248 248 248 248 250 251 252 257 260 261 263 264 264 262 261 264 268 270 270 267 265 262 259 258 259 259 255 250
10 6 4 2 1 358 359 3 9 11 10 9 7 4 1 348 261 215 207 204 200 198 200 203 206 208 210 209 209 211 212 213 219 224 227 227 225 222 222 224 227 230 229 230 230 228 229 234 237 239 241 242 243 245 247 248 248 248 248 246 247 249 250 252 255 257 259 261 263 264 263 265 268 270 271 270 269 268 266 262 259 259 259 256 249
9 3 359 358 355 352 355 0 5 7 8 9 6 359 358 360 353 305 229 212 205 202 203 205 209 210 210 210 212 216 218 219 224 227 227 228 227 223 222 225 227 229 230 231 231 230 229 230 232 235 238 238 241 244 247 248 249 248 248 247 247 250 251 252 254 256 257 258 260 262 264 266 269 270 270 270 270 269 267 266 264 261 259 257 250
8 4 358 354 351 349 350 351 355 360 2 3 1 359 1 359 354 349 323 251 220 212 208 209 212 210 208 212 215 217 221 223 226 227 227 228 227 223 222 225 227 228 229 229 229 229 230 229 228 230 232 234 239 244 247 248 249 248 248 246 247 248 250 250 252 254 256 258 258 258 259 261 266 269 269 269 271 271 269 268 267 265 262 259 255
5 2 357 350 348 347 345 343 346 351 354 355 353 355 359 357 351 349 346 330 268 231 215 211 212 210 211 217 217 216 220 224 226 227 226 225 224 223 223 225 226 225 226 228 227 227 229 229 226 226 229 230 236 243 246 247 248 249 248 247 245 245 246 247 250 253 255 257 258 257 256 257 263 267 266 265 267 269 270 270 268 266 263 261 259
2 359 354 349 346 344 344 345 346 346 345 346 349 352 354 354 355 357 360 359 341 283 232 218 215 214 217 220 219 218 220 224 225 225 225 223 222 224 225 225 224 220 221 227 228 225 227 230 228 228 230 232 235 241 246 247 247 248 248 247 245 244 243 244 248 252 254 256 257 258 257 259 262 264 265 265 263 263 266 267 267 266 265 265 264
360 355 350 349 346 342 344 347 346 345 343 343 349 354 354 357 1 3 10 17 18 20 17 226 216 217 222 222 221 223 226 228 229 226 224 223 224 226 226 223 220 218 220 227 228 224 226 232 232 230 231 234 236 240 244 246 247 247 247 246 245 243 242 243 247 251 253 254 256 256 257 259 260 261 263 263 260 258 259 260 260 261 262 264 266
355 350 346 347 345 341 342 345 343 343 344 342 346 350 352 0 10 12 15 14 356 354 14 19 360 237 235 229 225 225 226 229 233 233 231 227 224 227 228 224 220 220 222 227 227 224 226 231 232 230 230 233 238 240 242 244 247 246 244 243 243 242 242 243 246 251 253 254 255 254 255 257 259 260 262 262 259 255 253 252 252 253 254 257 261
349 345 342 342 343 341 339 341 345 347 345 342 343 346 347 356 10 18 26 26 359 335 343 338 294 267 261 251 241 235 230 228 228 228 233 236 232 230 229 226 224 223 224 224 224 225 227 229 229 228 229 233 239 241 242 243 245 244 241 239 239 240 241 243 246 249 252 253 254 254 254 255 257 259 261 262 261 255 249 246 247 248 249 251 255
346 344 343 340 341 341 340 342 348 352 350 345 343 346 347 351 3 13 20 25 18 14 19 12 321 285 280 269 256 249 243 239 233 228 230 235 241 240 234 229 227 226 227 227 227 227 229 229 227 228 231 235 240 243 244 243 244 242 239 237 238 238 239 242 245 248 250 252 254 254 254 253 255 258 260 262 260 254 248 244 243 245 247 249 253
342 344 345 340 336 336 340 346 352 353 353 350 346 347 352 356 360 3 4 7 4 1 3 1 343 322 305 282 265 254 247 243 241 238 234 232 239 246 245 238 234 232 232 232 230 228 230 230 229 230 233 236 240 243 245 245 245 242 239 237 236 236 237 239 242 245 247 250 252 254 253 252 253 256 259 260 258 252 247 243 240 242 244 247 253
334 339 341 339 335 336 341 346 351 351 351 352 350 350 354 356 356 354 351 349 349 349 348 343 336 330 314 290 282 268 251 238 236 240 240 236 234 236 239 240 241 242 241 238 233 231 232 232 230 231 234 236 238 242 245 246 246 243 240 237 235 233 235 238 240 241 243 245 249 252 253 253 253 254 256 257 256 252 247 244 239 236 239 247 254
327 331 335 336 336 336 338 341 345 346 347 351 351 352 353 351 350 350 344 336 335 339 341 338 335 334 315 287 284 284 263 247 238 238 240 239 235 230 230 234 238 242 244 242 236 233 234 235 233 232 232 234 237 242 244 246 246 245 242 238 234 234 236 237 237 239 240 242 245 249 252 253 253 254 255 254 254 252 249 245 241 239 244 253 259
324 325 328 333 334 332 333 337 340 342 344 347 348 350 350 346 343 342 337 331 329 331 334 333 333 333 322 304 295 289 268 250 241 238 239 240 237 230 227 229 232 237 243 245 242 237 236 238 238 236 234 234 238 243 245 245 246 246 244 239 236 237 238 236 234 236 239 240 241 245 251 254 253 254 255 254 254 253 250 247 247 249 253 258 260
319 321 324 328 328 327 329 332 334 336 338 341 342 343 343 342 340 335 331 328 327 325 324 327 333 334 327 319 311 299 284 266 249 238 235 238 238 233 227 226 228 233 240 246 246 242 240 242 243 243 242 239 238 242 246 247 245 245 245 243 240 240 239 235 232 234 238 240 241 245 251 254 255 255 256 256 256 254 250 250 251 253 255 257 257
311 314 319 323 322 321 323 325 327 330 332 334 336 335 335 337 337 333 330 329 327 322 319 323 332 332 322 315 313 305 295 286 270 249 235 233 235 235 233 230 230 232 235 241 244 243 241 242 244 246 247 245 241 241 245 247 247 244 244 245 244 243 241 237 235 236 238 239 241 245 251 255 257 257 257 258 258 256 252 252 254 254 255 255 253
304 308 313 316 316 315 315 317 320 323 325 326 327 328 329 332 333 332 330 327 325 321 318 321 328 327 319 315 312 304 295 287 276 261 246 240 237 235 233 232 233 235 238 241 244 244 241 240 241 242 244 246 244 241 241 245 247 246 244 245 246 245 243 239 237 238 240 240 243 247 252 256 258 259 259 258 257 255 254 253 253 254 253 251 249
295 300 306 311 312 310 309 311 313 315 318 320 318 318 322 325 328 329 326 323 322 319 315 317 321 321 320 320 315 307 301 294 284 271 259 256 253 247 241 237 236 237 239 241 244 244 241 238 239 240 241 242 244 244 242 241 243 244 244 245 246 246 245 243 241 242 243 243 245 249 252 255 257 258 257 256 255 254 255 254 252 251 249 247 246
291 294 300 304 306 306 305 306 307 306 309 312 310 308 312 318 322 324 322 317 315 315 312 313 314 314 318 320 315 309 305 299 293 284 270 260 259 258 254 248 242 239 240 241 243 243 242 240 240 240 239 238 240 244 244 239 234 237 241 243 243 244 243 242 241 242 243 243 245 248 251 252 254 255 254 254 254 253 252 250 247 245 243 243 243
289 291 292 293 296 299 300 301 302 301 301 305 302 297 302 311 317 322 320 313 309 309 308 306 304 305 312 314 308 303 299 294 291 287 277 264 258 254 250 245 242 238 236 237 238 240 241 242 242 240 237 236 237 238 239 234 226 226 234 238 240 240 240 238 239 239 240 241 243 246 248 248 248 248 249 248 247 246 245 245 245 243 241 242 243
288 288 288 286 285 290 293 295 296 296 296 298 295 288 292 303 311 318 318 309 304 305 305 302 301 303 309 308 300 295 293 291 289 286 279 270 262 256 249 247 247 244 241 241 241 241 240 241 243 243 239 234 234 235 235 236 235 233 232 233 236 238 238 239 241 240 238 239 240 240 240 240 239 238 238 239 237 236 237 240 243 242 241 240 240
286 285 284 282 280 283 286 288 291 292 292 292 289 284 285 293 302 311 314 305 300 302 303 301 301 303 302 296 291 291 294 294 291 288 284 279 273 268 261 255 253 253 255 254 250 247 246 245 247 249 245 240 240 242 243 245 246 244 240 239 241 243 244 245 245 240 233 233 235 233 232 233 233 232 231 231 230 227 227 231 236 238 238 237 236
286 284 282 280 280 281 280 281 285 287 288 288 285 279 278 281 286 299 305 300 294 295 297 297 296 296 294 290 288 292 297 297 293 289 285 283 282 280 275 268 264 262 263 261 257 253 252 250 250 253 254 253 254 254 253 253 253 251 248 246 246 247 248 249 246 237 227 224 225 227 229 230 231 231 231 230 228 225 224 225 227 230 235 237 237